Location: Beadle
(51.4667°N, 109.0000°W)
Time: 04:11:03
(UTC+00:00)

Envisat - Visible Passes

Search period start: 18 January 2022 00:00
Search period end: 28 January 2022 00:00
Orbit: 764 x 766 km, 98.2° (Epoch: 17 January)

Date Brightness Start Highest point End Pass type
(mag) Time Alt. Az. Time Alt. Az. Time Alt. Az.
18 Jan 5.8 00:36:24 10° SW 00:39:51 18° W 00:43:19 10° NW visible
18 Jan 5.5 10:59:33 10° NE 11:03:01 18° E 11:06:27 10° SE visible
18 Jan 2.8 12:37:31 10° NNE 12:42:38 77° WNW 12:47:41 10° SSW visible
18 Jan 4.5 14:17:57 10° NNW 14:20:51 15° NW 14:23:44 10° W visible
19 Jan 3.6 12:00:41 10° NNE 12:05:42 56° E 12:10:41 10° S visible
19 Jan 3.9 13:40:14 10° N 13:44:26 27° WNW 13:48:37 10° WSW visible
20 Jan 6.3 01:04:09 10° W 01:05:32 11° W 01:06:55 10° WNW visible
20 Jan 4.8 11:24:11 10° NNE 11:28:35 28° E 11:32:57 10° SSE visible
20 Jan 3.1 13:02:56 10° N 13:07:50 49° WNW 13:12:42 10° SW visible
21 Jan 5.7 00:24:12 10° SW 00:28:07 22° W 00:32:04 10° NW visible
21 Jan 5.7 10:48:27 10° NE 10:51:16 15° E 10:54:03 10° ESE visible
21 Jan 2.9 12:25:55 10° NNE 12:31:02 88° ESE 12:36:08 10° SSW visible
21 Jan 4.3 14:06:02 10° NNW 14:09:25 18° NW 14:12:48 10° W visible
22 Jan 4.0 11:49:10 10° NNE 11:54:04 45° E 11:58:55 10° S visible
22 Jan 3.7 13:28:28 10° N 13:32:57 32° WNW 13:37:23 10° WSW visible
23 Jan 6.0 00:51:10 10° WSW 00:53:45 14° W 00:56:21 10° NW visible
23 Jan 5.1 11:12:49 10° NE 11:16:53 23° E 11:20:54 10° SE visible
23 Jan 3.0 12:51:16 10° N 12:56:17 59° WNW 13:01:16 10° SSW visible
24 Jan 5.9 10:37:42 10° ENE 10:39:29 12° E 10:41:16 10° ESE visible
24 Jan 3.1 12:14:20 10° NNE 12:19:26 73° ESE 12:24:30 10° S visible
24 Jan 4.2 13:54:10 10° N 13:57:58 22° WNW 14:01:45 10° WSW visible
25 Jan 4.4 11:37:40 10° NNE 11:42:23 37° E 11:47:04 10° SSE visible
25 Jan 3.4 13:16:45 10° N 13:21:26 38° WNW 13:26:06 10° SW visible
26 Jan 5.9 00:38:42 10° SW 00:42:00 17° W 00:45:18 10° NW visible
26 Jan 5.4 11:01:32 10° NE 11:05:09 19° E 11:08:44 10° SE visible
26 Jan 2.8 12:39:37 10° N 12:44:43 72° WNW 12:49:46 10° SSW visible
26 Jan 4.6 14:20:10 10° NNW 14:22:54 15° NW 14:25:37 10° W visible
27 Jan 3.5 12:02:46 10° NNE 12:07:49 59° E 12:12:49 10° S visible
27 Jan 4.0 13:42:23 10° N 13:46:30 25° WNW 13:50:36 10° WSW visible
